Regional Weather Roundup
Issued by NWS Goodland, KS

Home | Current Version | Previous Version | Text Only | Print | Product List | Glossary Off
Versions: 1 2 3 4 5 6 7 8 9 10 11 12 13 14 15 16 17 18 19 20 21 22 23 24 25 26 27 28 29 30 31 32 33 34 35 36 37 38 39 40 41 42 43 44 45 46 47 48 49 50

422
ASUS43 KGLD 122359
RWRGLD

GOODLAND FORECAST AREA HOURLY WEATHER ROUNDUP
NATIONAL WEATHER SERVICE GOODLAND KS
500 PM MST FRI FEB 12 2016

...OFFICIAL OBSERVATIONS...

CITY           SKY/WX    TMP DP  RH WIND       PRES   REMARKS
GOODLAND KS    CLOUDY    32  29  88 E14       30.34F
HILL CITY KS   CLOUDY    35  27  72 E10       30.45R
IMPERIAL NEB   CLOUDY    34  30  85 SE9       30.36F
MCCOOK NEB     CLOUDY    33  29  85 E9        30.41S
AKRON CO       CLEAR     35  32  88 E16       30.26S
BURLINGTON CO  CLOUDY    33  30  88 E17       30.30S
LIMON CO       CLEAR     47  32  56 SE9       30.24S
$$

...UNOFFICIAL OBSERVATIONS...

CITY           SKY/WX    TMP DP  RH WIND       PRES   REMARKS
COLBY KS       CLOUDY    34  34 100 E12       30.39F
GOVE KS          N/A     34  32  92 MISG        N/A
LENORA KS        N/A     33  32  96 MISG        N/A
NORTON KS      CLOUDY    34  27  75 NE8       30.45R
SHARON SPRINGS   N/A     35  31  87 E12G20      N/A
KIT CARSON CO    N/A     56  34  43 MISG        N/A
YUMA CO          N/A     33  30  89 SE12        N/A
$$




USA.gov is the U.S. government's official web portal to all federal, state and local government web resources and services.